Gaithersburg, MD

10:45 AM EST on December 13, 2019 (GMT -0500)
Montgomery County

Weather History for KGAI - November, 2019

Change the Weather History Date:

Thursday, November 14, 2019

  Actual Average (KCGS) Record (KCGS)
Temperature  
Mean Temperature 34 °F -  
Max Temperature 43 °F 54 °F 78 °F (1955)
Min Temperature 24 °F 36 °F 20 °F (1986)
Degree Days  
Heating Degree Days 32    
Moisture  
Dew Point 18 °F    
Average Humidity 58    
Maximum Humidity 79    
Minimum Humidity 34    
Precipitation  
Precipitation 0.00 in - - ()
Sea Level Pressure  
Sea Level Pressure 30.41 in    
Wind  
Wind Speed 5 mph (South)    
Max Wind Speed 14 mph    
Max Gust Speed -    
Visibility 10 miles    
Events      
Averages and records for this station are not official NWS values.
T = Trace of Precipitation, MM = Missing Value Source: NWS Daily Summary

Daily Weather History Graph

Daily Weather History Graph

Search for Another Location

Airport or City:

Astronomy

Nov. 14, 2019 Rise Set
Actual Time 6:50 AM EST 4:55 PM EST
Civil Twilight 6:22 AM EST 5:23 PM EST
Nautical Twilight 5:49 AM EST 5:55 PM EST
Astronomical Twilight 5:18 AM EST 6:27 PM EST
Moon 6:39 PM EST (11/14) 8:43 AM EST (11/14)
Length of Visible Light 11h 01m
Length of Day
10h 04m
Waning Gibbous, 95% of the Moon is Illuminated
Nov 14
Waning Gibbous
Nov 19
Last Quarter
Nov 26
New
Dec 4
First Quarter
Dec 12
Full

Hourly Weather History & Observations

Time (EST) Temp. Windchill Dew Point Humidity Pressure Visibility Wind Dir Wind Speed Gust Speed Precip Events Conditions
12:56 AM 26.1 °F 19.4 °F 16.0 °F 66% 30.46 in 10.0 mi SSE 5.8 mph - N/A   Clear
1:56 AM 26.1 °F 20.5 °F 16.0 °F 66% 30.45 in 10.0 mi SSE 4.6 mph - N/A   Clear
2:56 AM 25.0 °F 19.3 °F 16.0 °F 69% 30.45 in 10.0 mi SSE 4.6 mph - N/A   Clear
3:56 AM 26.1 °F 21.9 °F 17.1 °F 69% 30.44 in 10.0 mi South 3.5 mph - N/A   Clear
4:56 AM 25.0 °F 20.7 °F 16.0 °F 69% 30.44 in 10.0 mi SSE 3.5 mph - N/A   Clear
5:56 AM 24.1 °F 19.7 °F 16.0 °F 71% 30.45 in 10.0 mi South 3.5 mph - N/A   Clear
6:56 AM 25.0 °F 20.7 °F 16.0 °F 69% 30.46 in 10.0 mi South 3.5 mph - N/A   Clear
7:56 AM 28.0 °F 24.2 °F 18.0 °F 66% 30.47 in 10.0 mi SSE 3.5 mph - N/A   Clear
8:56 AM 33.1 °F 26.9 °F 17.1 °F 52% 30.48 in 10.0 mi SSW 6.9 mph - N/A   Clear
9:56 AM 34.0 °F 27.2 °F 16.0 °F 48% 30.46 in 10.0 mi SSW 8.1 mph - N/A   Clear
10:56 AM 36.0 °F 30.3 °F 17.1 °F 46% 30.45 in 10.0 mi South 6.9 mph - N/A   Clear
11:56 AM 39.9 °F 33.9 °F 16.0 °F 38% 30.42 in 10.0 mi South 9.2 mph - N/A   Clear
12:56 PM 42.1 °F 34.9 °F 16.0 °F 35% 30.39 in 10.0 mi South 13.8 mph - N/A   Clear
1:56 PM 43.0 °F 37.2 °F 16.0 °F 34% 30.37 in 10.0 mi South 10.4 mph - N/A   Clear
2:56 PM 43.0 °F 38.8 °F 16.0 °F 34% 30.37 in 10.0 mi SSW 6.9 mph - N/A   Clear
3:56 PM 39.0 °F 34.8 °F 16.0 °F 39% 30.38 in 10.0 mi South 5.8 mph - N/A   Clear
4:56 PM 37.0 °F 33.3 °F 17.1 °F 44% 30.38 in 10.0 mi SSE 4.6 mph - N/A   Clear
5:56 PM 34.0 °F - 18.0 °F 52% 30.38 in 10.0 mi Calm Calm - N/A   Clear
6:56 PM 28.9 °F - 21.9 °F 75% 30.38 in 10.0 mi Calm Calm - N/A   Clear
7:56 PM 30.9 °F - 23.0 °F 72% 30.38 in 10.0 mi Calm Calm - N/A   Overcast
8:56 PM 33.1 °F - 21.0 °F 61% 30.37 in 10.0 mi Calm Calm - N/A   Overcast
9:56 PM 33.1 °F - 25.0 °F 72% 30.37 in 10.0 mi Calm Calm - N/A   Overcast
10:56 PM 33.1 °F - 26.1 °F 75% 30.37 in 10.0 mi Calm Calm - N/A   Overcast
11:56 PM 30.0 °F - 24.1 °F 79% 30.36 in 10.0 mi Calm Calm - N/A   Scattered Clouds